Theta_e
299 299 299 300 301 306 310 312 314 315 317 318 319 320 322 323 321 321 322 323 323 322 321 321 319 316 314 320 322 322 322 321 321 322 324 327 329 331 331 332 332 331 330 330 329 325 327 326 320 316 314 312 311 309 308 305 303 301 299 297 295 293 292 293 292 292 289 288 288 287 286 288 291 288 287 287 287 287 286 287 286 286 285 285 284
297 297 297 297 299 300 305 309 309 312 314 317 318 320 321 322 321 322 321 321 323 323 323 322 322 322 321 320 321 320 318 318 320 320 322 322 324 328 329 331 332 331 328 330 329 329 327 326 322 317 314 312 311 310 308 305 303 302 299 296 296 294 292 293 292 292 290 288 286 285 285 287 290 288 287 286 285 285 286 286 286 286 285 285 285
296 296 296 297 299 299 301 306 310 314 315 316 318 319 319 320 321 321 321 321 322 322 322 322 323 321 320 315 318 309 310 313 313 314 315 319 320 323 327 329 330 331 330 328 329 329 328 326 324 320 315 312 311 310 308 306 304 302 299 297 294 294 293 293 292 293 290 289 289 286 284 284 287 287 286 286 287 287 286 285 286 285 285 285 285
297 297 297 296 297 297 297 301 307 310 310 311 314 316 318 319 320 320 320 320 321 321 319 320 319 314 313 308 311 314 311 307 309 309 313 315 317 319 323 327 329 330 330 329 328 329 328 327 326 322 317 314 312 310 308 306 304 303 300 299 297 293 292 291 293 293 291 289 286 288 286 285 283 284 284 286 287 287 287 287 286 285 285 284 284
297 297 295 295 297 298 299 301 302 306 309 311 314 316 318 318 319 319 319 319 319 317 316 313 312 309 306 306 306 307 307 306 307 308 312 316 318 317 321 323 327 328 329 330 327 329 328 327 326 324 320 316 314 312 309 308 305 303 301 299 297 296 292 292 292 292 292 294 291 285 285 284 284 285 284 284 285 286 287 287 287 286 284 284 284
295 297 296 295 298 298 296 297 299 303 307 309 312 315 316 316 316 315 315 315 316 314 315 313 314 314 309 310 309 307 310 308 311 313 312 314 317 319 315 319 323 325 327 328 328 327 328 327 325 323 321 318 315 314 311 309 306 303 301 300 298 298 296 292 291 292 292 292 293 295 290 289 287 285 284 283 285 286 286 287 287 287 285 284 284
294 295 295 296 297 297 297 297 299 300 304 305 304 308 310 311 313 313 314 314 314 312 312 312 312 312 313 315 314 313 313 312 310 307 310 309 308 314 318 317 319 322 323 325 326 325 326 326 326 324 321 319 315 315 312 309 308 305 302 301 300 299 297 293 292 291 292 292 293 293 294 293 291 286 285 285 282 285 284 285 286 286 285 284 283
295 296 297 297 298 299 300 299 299 300 299 300 302 303 306 308 310 311 311 311 312 312 311 313 314 312 311 312 312 313 312 313 309 306 303 305 309 310 311 315 318 320 321 322 325 324 323 325 324 323 323 321 316 315 314 312 309 307 303 302 301 300 298 297 294 293 291 291 292 291 291 293 290 291 289 289 286 282 283 284 284 285 285 285 284
294 296 297 298 298 298 298 298 298 298 298 300 302 303 304 304 306 306 308 309 310 310 310 310 313 312 312 312 311 311 311 310 302 303 306 304 307 308 309 312 314 317 319 319 321 323 321 321 322 322 321 321 316 318 317 314 310 307 304 302 301 300 299 300 298 294 292 293 292 291 292 292 291 291 291 290 286 284 283 282 282 283 285 285 284
294 294 295 296 296 296 297 298 297 298 297 298 299 299 300 300 303 304 306 307 308 309 309 309 310 310 310 310 311 311 306 304 302 304 304 303 306 307 307 308 311 314 316 317 317 319 319 319 321 322 322 321 315 316 315 313 310 308 305 303 302 301 301 300 300 298 295 296 295 294 292 292 288 288 288 288 287 287 286 282 283 282 282 285 285
294 294 295 293 293 294 295 297 297 297 296 297 298 299 299 301 302 304 305 306 306 308 308 309 309 309 311 310 310 310 306 305 303 303 303 302 305 306 306 307 308 312 314 314 316 317 318 316 318 320 320 318 316 317 316 315 312 309 306 304 303 302 301 300 300 301 298 297 297 296 295 294 292 290 289 288 288 286 286 284 283 284 284 284 284
294 294 296 294 295 295 295 296 296 295 295 296 297 298 298 299 300 302 303 304 305 306 306 308 309 309 310 310 309 309 307 306 305 306 304 304 305 306 305 304 306 308 310 312 313 313 313 314 313 316 317 319 317 316 316 316 314 311 308 305 303 303 302 301 301 300 300 298 298 298 297 296 296 296 296 292 290 290 289 286 284 285 285 285 284
293 293 292 293 293 293 295 295 294 294 295 295 296 296 297 297 299 301 303 302 304 305 306 307 307 308 309 309 308 308 307 306 306 306 305 305 305 305 304 305 304 305 308 310 311 310 310 311 313 313 314 316 317 317 316 315 313 310 308 305 304 303 302 302 301 301 301 299 299 298 298 297 297 297 295 292 292 292 290 285 285 285 284 283 282
292 292 291 291 292 294 293 293 292 293 293 294 295 295 296 298 298 300 302 301 302 303 305 306 306 308 308 308 308 307 306 306 306 307 306 305 305 305 305 305 305 306 307 308 310 310 310 312 312 312 313 314 314 315 316 315 314 311 309 307 305 305 304 303 303 302 302 301 300 299 297 297 297 297 295 293 292 289 287 287 284 284 284 282 282
291 292 294 295 295 294 294 294 292 292 293 294 293 295 295 298 299 300 301 301 301 303 304 305 306 306 306 307 307 306 307 306 306 306 306 304 304 304 305 305 305 306 306 306 305 306 308 309 309 311 312 312 312 312 312 313 313 312 309 308 306 305 304 303 303 302 301 300 299 299 298 297 297 297 295 294 294 292 291 288 285 282 283 281 281
292 293 295 295 295 293 294 294 294 293 293 293 294 296 296 299 299 300 301 301 301 301 303 305 305 305 305 305 306 305 304 304 304 303 304 304 304 304 305 305 305 305 304 303 303 305 306 306 306 307 309 310 310 310 311 310 310 309 307 307 307 306 305 302 302 302 301 300 300 299 297 297 297 297 296 295 294 293 292 289 288 287 284 281 281
291 292 294 295 293 294 295 295 295 294 294 296 297 297 298 299 299 300 300 300 300 301 302 302 304 303 304 304 304 304 304 304 305 304 303 303 303 304 304 304 303 303 303 302 302 303 304 305 305 305 306 306 307 308 309 309 309 308 307 305 304 303 302 302 302 301 301 301 300 298 298 298 297 297 296 295 294 292 291 289 289 289 288 286 280
290 292 293 294 294 295 295 296 296 296 296 295 296 296 297 299 299 299 299 300 300 301 301 301 302 302 303 303 304 304 305 304 304 304 302 302 302 302 301 301 302 302 302 301 301 301 301 301 304 304 303 303 304 305 306 307 306 305 306 306 306 304 302 301 301 301 300 299 298 297 297 297 297 296 296 294 293 293 290 289 289 289 290 288 285
292 293 293 293 294 295 296 296 296 296 296 296 295 295 296 296 297 298 300 300 300 301 300 300 301 303 304 303 302 303 303 303 303 301 300 301 302 302 301 302 300 299 300 299 299 297 297 297 299 300 299 300 300 301 302 304 305 305 303 302 302 301 301 300 299 298 299 297 296 296 295 296 295 295 294 293 291 291 290 289 288 288 287 289 286
291 291 293 294 294 294 295 295 295 295 296 296 295 293 295 296 296 297 298 297 297 298 298 299 299 300 302 300 300 302 302 302 301 300 300 301 302 301 301 298 300 298 299 298 298 296 295 296 296 297 298 297 296 297 297 299 299 301 300 299 299 299 298 298 297 295 297 295 295 295 294 295 294 292 292 291 290 289 289 288 288 287 287 287 287
292 291 292 293 295 295 293 292 293 291 290 291 292 295 296 295 296 296 297 298 298 298 297 299 297 299 298 299 300 299 299 299 298 299 299 300 300 299 300 299 294 297 296 295 295 295 295 295 296 296 297 296 296 296 295 295 295 296 296 297 297 296 297 297 296 294 293 293 294 294 294 294 293 291 291 291 290 289 288 288 288 287 287 285 286
294 293 293 294 294 293 292 289 287 288 291 290 293 291 292 294 296 296 296 297 298 297 297 298 297 298 298 299 298 296 297 296 297 297 297 298 297 297 296 292 295 295 293 295 295 294 293 294 294 295 295 295 296 297 295 295 295 295 295 296 296 295 295 295 293 294 292 293 293 293 293 292 290 291 290 289 289 288 287 287 286 286 286 285 285
293 294 293 294 294 293 292 292 291 291 292 289 289 291 294 293 293 293 294 297 297 297 296 296 297 297 297 297 296 296 295 294 295 296 295 295 294 292 291 294 294 292 291 293 294 293 293 293 294 294 295 295 295 295 294 294 295 296 296 295 295 294 295 295 293 294 293 292 292 291 292 291 288 288 288 288 287 287 287 287 286 286 285 284 283
295 297 298 297 296 295 295 295 296 294 291 293 293 292 293 293 294 293 294 296 295 295 294 294 296 296 296 293 295 294 292 293 294 295 295 294 292 292 291 292 293 291 292 291 291 293 293 293 293 293 295 295 294 293 293 293 295 295 296 295 294 293 294 294 294 294 293 291 291 291 291 289 287 287 286 285 285 285 285 286 285 284 285 283 282
296 296 296 296 297 297 298 298 295 293 292 292 292 293 293 294 293 294 296 296 295 293 293 295 294 295 293 293 293 292 292 293 294 294 293 293 291 291 290 292 292 292 292 291 290 290 292 292 294 294 294 294 294 294 293 293 293 293 294 295 294 294 294 294 294 294 292 291 291 291 290 288 287 287 285 284 284 284 284 284 284 283 283 281 281
294 295 296 297 296 296 297 297 297 294 293 292 292 292 293 293 294 294 295 295 295 291 293 294 294 294 295 293 293 292 293 293 293 293 293 292 291 290 291 290 291 293 292 291 292 290 291 292 292 293 294 294 294 293 293 293 293 293 292 293 293 293 293 293 293 293 292 291 291 291 289 287 286 286 285 284 284 284 283 283 282 281 281 281 281
293 293 294 293 295 297 297 297 296 294 291 292 292 293 293 293 293 293 293 294 294 292 293 293 294 293 295 294 294 294 294 294 293 293 292 291 291 290 290 291 290 291 292 291 290 291 290 291 292 292 292 293 293 293 293 293 292 292 292 292 292 291 292 292 292 292 291 291 290 290 288 287 286 287 285 284 283 283 283 282 282 281 281 281 281
291 291 293 294 295 295 295 296 296 297 296 295 294 293 294 294 294 294 291 291 293 291 292 292 293 293 294 295 295 295 294 294 293 292 292 291 291 290 290 290 289 290 291 291 291 291 290 290 291 291 291 292 293 293 292 292 292 292 291 291 291 291 291 291 290 290 290 290 290 289 288 287 287 287 285 284 284 283 283 282 282 282 282 283 282
291 292 292 293 294 295 295 295 295 295 295 296 296 297 296 295 293 293 290 291 290 290 291 291 292 292 294 296 296 295 293 292 292 291 291 291 291 290 289 289 289 290 290 290 290 290 290 289 289 289 289 290 292 292 292 291 291 291 291 291 291 291 290 290 289 289 289 289 288 288 287 287 286 286 286 285 285 285 283 282 282 283 283 284 283
292 292 293 293 293 293 293 293 293 294 294 295 296 297 297 297 297 296 292 291 287 289 290 291 291 292 294 294 294 293 293 292 290 291 292 291 290 289 289 289 289 289 289 289 288 288 289 289 288 288 288 289 290 291 289 291 291 291 290 291 290 290 290 290 289 288 287 287 287 287 286 285 285 285 285 285 286 286 285 284 283 284 284 284 283
292 292 292 292 292 292 292 292 293 293 294 295 296 296 296 296 296 296 295 293 288 289 289 290 291 292 293 293 292 293 292 291 291 291 290 290 289 288 288 288 288 288 288 287 287 288 288 288 288 288 288 288 289 289 289 291 292 292 290 289 289 289 289 289 289 288 287 286 286 286 285 285 285 284 285 286 286 286 286 286 286 286 286 285 284
292 292 292 292 292 292 293 293 293 293 293 294 295 296 295 295 296 296 296 292 289 288 290 290 291 291 291 292 291 291 290 291 290 290 290 288 287 287 288 288 288 287 287 286 286 287 287 287 287 287 287 288 288 288 290 291 292 292 291 289 289 288 288 288 288 287 287 286 285 284 284 284 284 284 284 285 285 286 287 287 287 287 288 288 287
291 291 291 291 292 293 293 293 293 294 294 295 294 293 294 295 295 296 294 293 292 290 290 291 291 291 291 290 290 290 290 290 290 289 289 288 287 288 288 288 288 288 285 286 287 286 286 286 286 286 287 287 287 289 291 291 291 292 292 289 288 287 287 287 287 286 286 285 283 282 282 283 283 284 284 284 284 285 287 288 288 287 287 287 287
290 290 290 291 292 292 292 292 292 292 293 293 292 292 293 293 293 293 293 294 293 293 291 291 291 290 290 289 289 289 289 289 289 288 287 288 287 288 288 288 287 286 286 286 286 286 286 285 286 286 287 287 287 288 290 291 290 291 292 290 287 287 287 287 286 285 284 283 283 282 281 281 282 283 283 283 284 284 285 285 285 284 285 286 286
289 291 292 292 292 292 292 291 292 291 290 290 291 292 292 292 292 292 293 293 293 292 292 291 290 290 288 288 288 288 288 289 288 287 287 287 288 288 287 287 287 286 286 286 285 285 285 285 285 286 286 287 287 289 290 290 290 291 291 291 286 286 286 286 285 284 284 283 282 282 282 282 282 282 283 283 284 284 284 284 284 283 284 283 283
290 289 291 291 291 291 291 291 291 290 290 290 290 290 289 290 290 290 291 291 290 290 291 291 290 289 289 288 287 288 288 287 287 286 287 287 287 287 287 285 285 284 285 284 284 284 284 284 284 285 286 286 286 288 289 290 290 290 291 288 286 285 285 285 284 283 283 282 282 282 282 282 282 282 284 286 285 284 284 283 282 281 281 281 281
289 289 290 291 290 290 290 289 288 288 288 289 289 289 288 288 288 290 290 289 289 289 290 290 289 289 288 287 286 287 287 287 286 286 287 287 287 286 285 284 284 283 283 283 284 284 284 284 284 285 285 286 286 287 288 289 290 290 290 287 285 285 284 284 283 282 282 282 282 282 282 282 282 282 285 287 287 286 283 282 281 280 280 280 280
288 289 288 288 288 288 288 287 287 287 287 288 287 287 286 286 287 288 288 289 289 289 290 289 289 289 287 286 285 286 287 287 286 286 287 286 285 282 284 283 284 283 282 282 282 282 282 283 284 285 285 285 285 285 287 289 289 290 289 286 285 284 284 283 282 281 281 281 282 283 283 282 282 283 287 288 288 285 283 282 280 279 279 279 279
287 287 288 288 288 287 287 286 287 287 289 287 286 285 284 285 286 287 287 287 288 289 289 289 289 288 287 285 285 285 286 286 286 286 285 285 284 284 281 280 281 280 281 279 280 281 279 280 282 285 285 285 284 284 287 288 289 290 288 285 285 284 283 281 280 280 281 281 281 283 283 283 283 285 288 288 287 284 282 281 281 280 279 278 279
288 287 286 287 286 285 286 286 286 288 287 286 285 284 284 285 286 286 286 286 287 288 288 287 286 286 285 284 283 284 284 285 285 284 283 283 280 278 278 279 277 279 279 279 279 281 281 281 282 284 284 284 284 284 285 288 289 289 289 285 284 283 282 280 280 279 279 280 281 282 284 286 286 288 288 288 286 285 282 281 281 280 279 278 279
288 288 288 285 284 285 286 286 286 287 285 284 284 283 284 284 284 284 285 286 287 286 285 285 285 284 283 283 282 281 283 282 282 282 280 277 278 279 278 278 278 278 277 277 278 278 280 281 282 283 283 283 284 283 284 287 288 288 289 285 283 283 282 280 279 279 279 279 280 281 283 286 287 288 288 287 286 286 284 282 282 280 280 280 280
287 287 286 286 286 285 285 286 284 284 283 282 282 282 284 284 283 284 285 285 285 284 284 283 283 282 281 279 278 278 278 279 277 277 276 276 275 277 278 278 278 278 278 278 277 279 280 280 281 281 282 282 283 284 284 286 288 288 289 286 283 282 281 279 279 278 279 279 280 281 282 285 287 288 287 287 287 286 285 281 282 283 284 283 279
288 288 289 287 286 286 286 286 287 286 283 281 278 280 282 283 283 284 285 283 283 282 281 281 280 279 277 275 274 276 276 276 276 276 276 275 275 276 276 278 278 278 279 279 279 280 280 279 279 280 280 281 282 283 284 285 287 288 288 286 284 283 283 281 279 278 279 279 280 281 283 286 287 287 287 287 287 286 284 283 285 285 284 283 281
287 286 287 286 286 287 286 286 286 286 285 282 280 281 282 282 283 284 283 282 280 280 278 278 277 275 274 274 274 274 275 275 274 274 275 275 275 275 276 278 279 279 279 279 279 279 279 278 278 279 279 280 281 282 284 285 286 288 287 286 285 285 284 281 281 280 280 280 281 282 285 287 287 287 287 287 287 284 283 285 285 285 284 282 279
286 286 286 285 285 285 285 285 286 286 286 284 278 280 281 281 283 281 281 281 279 278 277 277 275 274 273 272 273 273 274 274 274 276 276 275 274 274 276 275 278 279 279 279 279 279 279 278 278 278 279 280 281 282 283 285 285 286 286 286 286 285 284 284 281 281 281 281 283 286 287 287 287 287 287 287 285 284 285 285 285 285 282 277 276
286 286 286 286 285 284 284 284 285 285 284 284 282 278 280 282 283 281 280 279 277 276 276 275 272 273 272 272 273 273 273 273 274 274 275 276 276 276 276 276 277 278 279 279 278 278 278 278 277 278 279 280 281 282 282 283 285 285 285 286 285 285 284 283 282 282 283 285 286 287 287 286 286 286 285 283 281 283 284 285 283 280 275 274 273
285 286 285 285 284 284 284 284 284 285 284 283 281 280 280 280 280 280 278 276 275 275 276 274 272 271 271 272 272 272 273 272 273 273 273 274 275 276 277 278 279 279 279 279 278 278 277 277 278 278 279 280 280 281 282 282 283 284 284 284 284 283 283 283 282 283 284 285 286 285 285 286 285 284 282 282 282 283 280 278 274 273 272 272 272
286 286 286 285 285 284 283 283 283 284 283 281 280 279 279 278 277 277 275 274 276 276 276 274 271 271 272 271 272 276 274 272 272 272 274 273 274 276 278 278 279 279 279 278 278 278 277 277 278 279 279 280 280 281 282 283 283 283 283 283 282 282 282 282 282 283 284 285 284 284 284 281 280 279 278 276 275 274 273 272 272 271 270 269 270
284 284 284 284 283 282 282 282 282 283 281 279 278 278 277 276 276 275 273 274 276 276 275 272 271 272 272 275 273 273 273 273 273 273 273 275 277 277 278 277 278 279 281 280 279 278 278 279 279 279 279 279 280 280 282 284 283 284 282 282 281 282 282 282 283 284 282 281 280 278 277 276 276 275 274 273 272 271 270 270 270 269 268 267 266
283 283 282 282 281 281 281 281 281 281 280 279 278 277 276 275 274 273 272 275 276 275 273 273 272 272 271 274 274 273 273 274 274 273 274 276 282 282 280 279 279 282 282 282 282 279 279 279 279 280 281 280 280 282 285 285 285 284 284 284 283 284 284 283 284 284 281 278 277 276 275 274 274 274 273 272 271 270 269 268 268 269 266 264 263
281 281 281 281 281 281 280 280 281 281 280 279 277 276 275 274 273 273 272 274 274 275 275 274 275 274 275 274 273 273 274 274 274 275 276 277 278 281 283 283 282 282 282 282 282 282 282 281 280 279 281 284 284 285 285 285 285 284 284 284 284 284 284 284 284 279 277 276 275 274 273 273 273 273 273 272 271 270 269 268 267 266 263 266 263
Wind_Speed
6 6 6 7 9 9 7 6 7 7 7 8 9 10 11 13 11 13 11 9 9 9 9 10 10 7 6 11 13 10 10 8 8 8 8 8 9 10 10 10 10 10 10 11 12 10 10 9 10 10 10 10 11 12 12 12 12 12 11 10 12 9 6 7 8 9 10 5 4 3 2 2 1 0 1 1 3 5 6 6 6 6 5 5 4
5 5 5 5 7 7 6 7 6 8 9 9 11 13 12 10 12 12 8 9 10 11 11 10 11 11 11 11 10 8 8 9 10 8 8 7 8 9 9 9 11 11 9 9 10 11 10 9 10 11 11 11 11 11 13 13 14 12 10 7 5 11 9 10 9 10 3 7 7 2 1 1 1 1 2 3 3 3 3 5 6 7 7 6 5
7 7 5 6 7 7 6 7 8 12 12 13 12 10 9 10 10 9 9 10 10 10 10 11 10 7 8 5 7 4 3 4 4 4 5 7 8 9 9 10 10 11 11 10 10 11 12 10 10 9 11 10 9 9 9 11 10 11 14 13 10 5 6 8 12 11 8 6 5 6 2 3 2 2 3 4 4 3 3 3 4 5 7 6 7
11 10 9 6 6 5 5 6 10 8 7 6 7 10 9 10 9 10 10 10 9 10 10 8 6 4 2 2 4 5 5 4 3 2 5 6 9 8 9 11 11 11 12 12 10 10 10 12 10 9 10 11 11 11 12 12 12 11 11 11 13 12 7 9 10 10 8 13 7 7 4 2 1 10 7 3 4 5 5 6 4 5 5 4 5
11 9 7 6 6 8 11 11 6 8 9 10 10 11 10 13 12 12 10 10 9 8 8 5 5 4 3 3 3 2 2 3 4 5 7 8 7 9 11 9 10 11 10 12 13 12 10 9 10 12 12 12 12 12 12 14 14 14 15 13 14 14 11 9 11 12 10 10 9 7 2 2 9 1 8 4 4 4 6 5 5 5 5 5 6
9 10 8 5 8 6 5 5 7 9 10 10 10 10 8 9 8 8 6 6 8 8 8 7 8 8 7 7 6 5 7 6 11 14 9 9 12 6 4 8 9 9 10 10 10 11 13 12 9 8 11 12 13 14 13 11 13 13 15 14 15 12 14 12 12 12 9 11 8 1 3 7 8 5 7 7 2 5 3 6 7 7 5 6 6
6 7 6 5 7 6 7 7 9 9 11 6 5 6 6 6 7 8 8 7 7 7 8 8 7 8 11 12 10 11 12 10 7 4 6 6 3 6 7 6 8 9 9 9 9 9 9 9 12 12 10 9 11 10 11 13 12 13 11 12 13 12 10 12 14 12 8 9 9 7 1 1 3 10 7 6 2 5 5 6 7 6 6 6 7
6 7 7 7 6 8 10 10 8 11 4 4 5 5 7 8 8 8 7 8 7 7 9 9 10 9 9 9 10 11 12 12 7 6 3 4 7 7 6 7 8 8 9 9 10 9 8 10 9 8 12 14 11 11 13 12 10 10 13 15 14 13 15 15 14 12 16 14 13 10 7 3 5 1 4 11 5 6 9 4 4 6 6 8 8
5 6 7 7 6 7 6 5 6 2 4 7 7 6 5 5 6 5 7 7 7 8 9 9 9 10 10 9 10 10 10 8 4 5 5 5 7 6 7 7 7 8 8 9 9 10 10 9 8 10 9 9 11 14 14 14 17 16 14 13 13 12 11 12 11 14 15 13 11 11 8 6 4 4 2 2 5 6 6 10 11 4 5 8 8
2 4 5 6 5 4 4 2 2 5 3 2 2 3 4 4 5 6 7 7 7 8 9 9 9 9 10 11 13 11 7 5 4 6 6 5 8 8 7 7 7 8 9 9 9 9 9 9 11 11 12 12 10 11 9 9 11 13 15 15 15 15 13 13 14 12 13 13 13 12 12 7 2 3 4 6 4 5 8 11 12 13 13 10 5
4 3 2 3 3 3 2 4 2 1 1 2 4 4 5 5 6 7 7 6 7 9 9 10 9 9 11 12 13 13 9 8 7 7 6 5 9 8 8 8 7 9 8 9 10 10 10 9 9 9 10 11 11 12 15 15 14 14 13 14 14 16 13 13 12 10 10 11 10 10 12 13 15 13 13 11 11 9 5 6 8 10 12 5 10
4 3 3 4 3 3 1 1 2 2 2 2 2 2 3 4 4 6 5 6 6 7 8 10 10 11 11 11 13 12 10 10 12 12 10 11 10 9 7 5 7 6 7 8 9 7 8 8 8 9 10 10 11 10 11 12 12 12 13 15 14 14 12 11 12 13 12 11 11 11 12 11 11 11 11 11 12 11 11 7 8 5 3 6 1
4 4 4 4 3 3 1 2 2 3 2 3 3 2 3 3 4 6 8 5 7 7 9 10 10 11 12 11 11 9 10 11 12 12 9 10 8 8 6 8 6 7 9 9 9 8 8 9 8 8 8 9 9 10 11 10 9 8 9 11 13 15 15 14 13 15 16 15 16 13 11 11 12 10 6 7 6 3 7 6 3 5 6 7 3
4 4 4 4 4 4 4 4 3 2 2 2 2 3 4 4 5 6 8 5 6 7 9 10 12 11 10 10 10 9 10 10 11 11 9 8 7 9 9 10 10 11 10 11 9 9 8 9 9 10 9 8 7 8 10 11 12 12 12 12 14 14 13 17 17 17 15 15 11 10 11 11 11 9 8 7 9 9 7 9 7 2 0 5 2
4 4 5 5 5 5 5 4 4 4 3 4 4 4 4 5 5 7 7 6 6 8 7 10 10 9 9 9 9 8 10 10 10 9 9 9 8 9 10 8 10 9 9 8 7 8 9 9 9 10 11 10 7 7 7 9 10 10 11 12 10 10 11 12 13 14 14 15 14 11 11 10 10 9 8 9 9 11 11 10 11 8 1 1 4
5 5 6 6 5 4 4 5 5 5 5 4 5 4 5 7 6 7 9 7 7 7 8 9 9 7 7 9 10 9 8 8 8 7 8 8 9 10 10 9 9 7 7 6 7 8 9 9 9 10 10 11 10 8 8 8 8 8 7 9 14 11 12 13 13 13 15 15 13 12 9 10 10 9 9 8 9 9 8 9 10 11 11 7 5
5 4 4 6 5 5 6 6 5 5 5 7 7 6 7 7 7 8 8 6 6 7 9 7 7 7 9 9 8 9 9 11 11 10 10 8 8 9 9 9 8 8 7 7 8 8 8 9 9 10 10 9 10 10 9 9 9 9 9 9 9 7 8 11 12 12 13 12 11 13 12 11 10 9 8 9 9 8 8 9 11 13 11 10 7
4 6 6 6 6 6 6 6 6 7 7 6 7 6 6 6 7 8 7 9 8 8 8 7 7 8 8 8 9 10 10 11 10 10 7 8 9 8 7 8 9 8 8 7 7 8 8 8 9 9 9 9 9 8 8 8 7 7 9 11 12 11 11 10 10 12 13 11 11 10 9 10 9 9 10 10 9 11 9 10 11 10 9 12 10
3 4 4 5 5 6 6 7 6 6 6 7 6 5 6 6 6 7 10 9 9 8 7 6 7 7 7 8 8 9 9 9 7 7 6 9 11 9 10 10 6 7 7 7 7 7 7 8 8 8 8 9 7 8 7 7 8 9 8 8 7 7 9 10 10 10 11 10 10 12 10 10 8 10 9 8 8 9 9 9 10 9 8 9 9
2 4 4 5 5 5 6 6 6 6 6 6 6 5 7 7 7 9 7 6 6 8 7 8 7 7 8 6 8 8 8 8 7 7 8 10 10 9 9 8 9 6 8 8 8 8 8 8 8 8 8 8 8 7 7 7 6 8 7 8 8 9 10 11 10 8 8 8 10 11 10 10 9 7 8 9 9 9 9 9 9 8 7 5 7
3 3 4 5 6 6 6 5 6 5 5 4 4 6 7 5 7 7 9 9 10 9 7 9 6 8 8 10 9 7 8 7 7 8 9 11 9 8 9 8 5 8 7 8 8 9 9 9 9 9 9 8 8 8 7 6 6 7 7 7 7 8 10 9 8 8 7 8 9 11 10 10 7 8 9 8 9 10 9 9 8 8 9 6 8
2 3 3 5 6 9 6 4 3 4 6 6 5 4 5 6 6 6 6 9 9 9 8 7 6 8 9 10 9 7 7 6 8 9 10 11 9 8 7 5 8 7 7 8 9 8 8 8 8 9 8 8 8 8 8 8 9 8 8 7 7 8 9 9 7 9 8 8 9 11 11 9 9 11 9 9 9 9 9 9 9 10 10 9 8
2 1 3 5 5 4 5 6 6 5 6 5 4 5 7 6 6 6 7 12 9 8 6 6 7 8 10 9 7 8 7 8 9 10 11 10 8 6 5 7 8 6 6 7 8 8 8 8 9 8 8 9 9 8 8 9 10 10 10 8 8 9 10 10 10 10 10 9 9 10 10 9 6 8 9 9 7 9 9 11 11 8 9 9 8
7 9 11 13 12 9 9 8 8 7 6 7 6 5 6 7 7 6 9 13 8 7 6 7 8 9 8 6 8 8 7 9 10 11 11 10 8 7 6 8 8 6 8 7 6 7 7 8 9 8 9 9 9 8 7 8 10 10 10 10 9 9 9 10 10 10 9 9 11 10 9 9 9 9 8 7 7 7 8 9 9 6 6 8 7
14 14 13 13 11 11 11 11 8 7 7 7 7 7 6 8 6 8 10 10 8 6 7 8 7 9 8 8 9 8 9 11 12 9 10 9 8 7 7 9 7 8 8 7 7 6 7 8 9 9 9 9 9 9 9 9 9 8 9 10 9 9 9 10 10 10 10 10 10 11 10 9 9 10 7 8 8 9 7 7 7 6 6 6 4
9 10 10 11 10 10 11 10 9 7 6 7 7 7 7 7 8 7 9 8 9 5 7 7 7 9 10 9 11 9 12 13 11 10 11 9 8 8 8 8 8 9 8 8 9 8 8 9 9 9 9 9 8 9 10 10 10 9 9 9 9 9 9 9 9 8 8 9 10 10 8 9 10 12 11 9 8 9 8 8 8 7 7 7 7
7 7 8 8 10 12 12 12 10 8 6 6 6 7 7 7 9 8 8 8 8 6 7 7 8 8 9 10 11 12 13 12 13 13 9 8 9 9 9 10 8 9 9 9 8 9 8 8 9 8 8 9 8 8 9 9 9 8 9 9 8 8 8 8 9 9 8 8 8 8 8 9 11 10 11 11 10 9 9 9 9 8 7 9 8
6 7 9 9 10 10 11 11 12 12 11 10 7 7 7 8 9 8 6 6 8 7 7 7 8 8 9 12 13 13 10 11 9 8 8 9 9 9 10 8 7 10 10 9 10 9 9 8 9 8 8 8 8 8 8 8 8 8 9 9 8 9 9 8 7 7 7 8 8 8 9 10 11 11 11 10 12 11 8 8 7 8 9 9 8
6 7 7 8 9 9 11 11 12 12 13 13 12 11 9 7 6 7 6 8 7 6 7 8 8 9 12 13 12 10 8 8 8 8 9 10 10 9 8 8 8 9 9 8 8 8 8 8 7 7 7 7 8 8 7 8 8 8 8 8 9 9 9 8 7 7 7 7 7 7 8 9 10 11 13 13 12 12 12 10 7 9 9 9 8
6 6 6 7 8 8 9 9 10 10 11 11 12 12 12 11 12 10 7 6 3 6 7 8 9 12 12 12 11 9 9 8 8 11 11 9 8 7 7 8 9 8 8 8 7 8 9 9 9 8 7 7 7 6 8 13 11 9 8 8 7 8 8 8 8 8 7 7 8 8 8 11 12 13 14 15 15 15 14 13 12 11 11 9 8
5 5 6 7 7 7 7 7 8 9 9 10 10 10 10 12 12 12 10 6 3 6 7 8 11 11 11 10 9 10 8 9 10 9 8 8 8 7 7 8 8 7 8 7 7 9 9 8 9 8 8 8 7 6 11 10 12 13 9 8 8 8 8 8 8 8 8 8 6 7 6 9 11 12 13 17 17 17 16 16 15 14 12 11 9
6 7 7 8 8 9 9 9 9 9 9 8 10 11 10 12 12 12 11 7 4 5 7 9 10 10 9 9 9 9 8 10 8 10 9 7 6 7 8 8 8 8 7 5 8 9 8 8 7 7 8 8 7 9 11 11 13 13 12 8 7 7 7 8 8 9 8 8 8 7 7 7 9 11 11 12 13 16 18 19 18 16 15 11 11
5 6 6 7 8 8 9 9 9 10 11 12 10 10 12 12 13 13 11 11 9 7 8 9 10 9 10 8 8 8 9 9 10 9 7 6 8 8 9 9 11 9 6 9 10 8 9 7 8 8 8 8 7 9 10 11 14 12 11 10 6 7 7 8 8 8 8 8 8 7 7 7 8 15 12 11 12 12 14 18 17 15 13 11 9
6 5 5 5 6 7 7 7 8 10 9 10 9 10 12 11 11 11 11 12 10 11 8 10 10 9 9 8 7 8 9 9 7 7 6 7 8 11 10 9 8 7 9 9 8 9 8 9 9 9 8 7 7 9 10 10 14 14 13 11 7 7 7 8 8 8 8 9 9 10 9 9 9 11 11 12 12 12 10 11 10 8 7 9 10
7 9 10 9 8 8 8 9 9 9 9 10 12 10 11 12 11 12 12 11 12 10 11 11 11 10 6 8 7 7 9 8 6 6 7 8 9 8 7 7 7 9 10 10 10 10 10 9 8 8 7 8 7 9 10 12 13 14 14 12 7 6 6 6 7 8 8 9 9 8 9 10 11 12 11 13 12 11 10 10 10 8 7 6 6
6 6 9 10 11 10 10 11 10 10 11 9 10 9 10 13 11 11 11 10 10 11 12 12 10 9 8 7 6 8 8 7 6 6 7 9 8 8 9 6 6 6 6 5 6 6 8 8 8 8 7 8 7 10 11 13 14 14 14 9 7 7 7 6 7 7 7 7 8 9 9 10 11 11 14 20 15 11 11 12 11 9 8 6 4
7 5 7 8 8 8 9 8 8 8 9 10 9 9 10 11 12 12 11 11 10 11 13 10 9 9 9 7 6 7 8 7 6 7 8 8 8 8 6 5 7 7 7 8 8 8 7 8 7 7 8 7 6 8 12 13 13 16 12 7 7 6 6 6 6 6 6 6 7 8 8 9 10 10 16 19 20 17 11 12 11 9 7 7 5
7 8 7 7 7 7 8 6 8 9 8 7 7 8 9 11 12 11 11 12 11 13 12 10 11 10 7 6 6 7 8 7 6 8 9 7 5 4 5 5 8 7 8 8 6 6 5 6 7 7 8 8 6 6 11 12 13 15 12 7 6 6 4 4 3 4 5 6 7 11 9 9 10 11 17 18 19 16 12 11 11 11 9 8 6
5 6 8 8 8 6 8 9 9 11 10 7 8 8 8 10 11 11 11 12 13 14 12 12 13 10 8 7 6 6 7 7 7 8 6 6 6 6 3 4 5 4 5 4 4 6 4 4 4 6 7 7 4 4 9 10 12 13 10 6 6 5 5 4 4 3 3 5 7 9 13 13 12 15 20 18 17 13 11 11 11 11 9 9 7
6 5 6 7 7 7 7 8 9 11 10 9 9 9 9 10 11 8 10 12 13 12 11 11 11 10 9 7 5 6 6 6 8 6 5 6 4 3 4 5 4 4 5 5 4 5 5 4 4 4 5 5 5 4 6 11 12 13 12 6 5 6 6 6 6 7 6 4 6 6 10 16 18 20 21 20 17 16 12 10 10 10 10 9 7
10 10 7 5 4 5 8 8 8 8 7 7 7 8 10 10 9 9 12 12 10 10 11 11 10 9 8 7 5 5 7 6 5 5 4 3 4 6 6 6 6 5 5 5 4 4 4 3 3 4 4 4 5 5 6 12 13 13 11 9 6 7 6 6 6 6 6 6 6 7 7 13 19 22 21 20 18 15 13 10 9 9 8 10 11
6 8 5 6 6 5 6 6 4 5 5 5 6 9 10 10 9 11 12 9 9 10 10 9 9 8 7 5 5 4 4 4 2 2 3 2 2 4 6 7 6 6 7 6 5 4 4 3 3 3 3 4 4 6 5 10 12 12 12 12 6 5 7 8 7 6 6 6 7 7 7 13 21 20 20 19 18 17 15 8 7 10 15 18 10
12 14 13 10 11 10 10 11 11 8 4 3 3 7 9 9 11 14 10 8 9 8 8 7 7 7 5 4 3 2 2 1 2 2 4 3 3 4 4 5 6 6 6 6 5 5 5 4 3 2 2 3 3 3 7 6 10 12 14 12 12 8 13 9 9 9 8 8 7 8 9 16 17 19 19 19 18 18 11 8 14 16 17 17 11
8 7 9 10 11 12 11 9 9 9 8 6 5 9 9 9 14 10 7 8 8 7 5 6 6 5 4 3 2 1 1 1 3 3 3 4 3 3 3 5 5 6 6 6 5 5 5 5 5 3 2 2 2 3 4 7 8 12 14 14 15 15 14 8 8 8 7 8 8 9 11 19 18 20 20 19 18 13 10 16 17 17 18 15 8
8 10 10 9 10 13 14 14 12 10 10 7 4 7 12 15 12 6 8 9 8 7 5 5 5 4 4 3 1 1 0 1 2 4 5 4 3 4 4 2 4 4 5 6 5 5 6 5 4 4 3 2 2 3 2 5 9 12 14 15 15 16 15 14 8 6 8 8 11 15 19 20 20 20 20 18 14 13 17 17 17 18 15 7 7
9 9 10 10 11 11 12 13 15 10 8 10 7 5 11 15 11 8 9 8 7 7 6 6 4 3 3 2 1 1 0 0 1 1 3 5 7 6 5 5 5 5 5 5 5 5 4 4 4 3 4 3 3 3 3 4 6 9 9 13 14 15 13 12 10 9 12 17 20 22 21 20 17 16 12 8 7 8 14 16 17 13 7 7 7
12 11 9 10 9 11 14 14 16 14 9 9 9 8 9 11 11 9 8 7 7 6 7 5 4 3 2 1 2 1 0 0 1 2 2 3 5 5 6 5 5 6 5 5 6 6 5 5 5 5 4 4 4 4 4 4 5 6 6 8 9 9 13 12 9 10 13 13 17 15 12 14 12 16 14 12 11 12 10 9 6 6 6 6 7
9 11 11 10 10 10 12 13 14 13 10 9 9 10 10 9 9 8 7 6 7 7 8 7 5 2 1 1 2 3 2 1 1 3 4 3 3 5 6 7 7 8 8 7 7 7 7 7 7 6 6 5 5 5 5 6 6 6 6 6 7 8 8 7 9 9 10 11 11 13 15 11 10 10 9 7 6 6 6 7 6 5 6 6 7
11 11 10 11 11 12 12 13 14 11 9 10 10 10 8 9 8 7 5 6 8 6 6 6 4 2 2 1 1 1 2 2 2 2 3 4 6 6 6 4 2 3 5 7 8 6 6 5 6 7 8 6 6 7 6 6 7 8 9 9 8 8 8 8 10 14 10 10 10 9 9 9 9 10 8 8 7 7 5 5 7 6 6 7 7
9 8 9 10 10 10 12 14 14 11 9 10 10 10 8 7 7 5 4 5 7 7 6 7 5 4 3 2 2 2 2 2 2 2 1 1 1 3 1 4 3 3 5 4 5 5 6 7 7 6 5 9 9 8 12 16 14 14 13 12 10 11 11 11 18 21 12 10 9 9 8 9 9 8 8 8 8 7 7 7 6 6 7 7 6
14 14 15 13 12 11 11 13 14 12 12 12 11 10 8 7 6 5 4 6 5 6 6 6 5 5 4 3 3 3 2 2 2 2 1 2 1 2 5 5 4 5 5 6 6 5 8 9 7 6 3 6 9 15 18 17 17 16 16 16 17 18 21 22 22 14 10 9 9 9 7 7 7 8 8 8 8 8 8 7 7 6 6 7 6
Wind_Direction
253 234 233 225 224 220 217 201 206 206 207 198 194 198 198 197 186 200 199 187 182 182 183 182 187 187 201 202 211 204 204 200 205 205 203 204 198 200 199 200 197 200 205 196 196 196 198 190 181 184 186 187 187 185 178 180 179 177 170 167 159 150 151 156 157 139 128 83 53 52 38 6 13 357 220 210 192 179 169 158 158 146 154 150 161
278 268 248 233 228 221 207 199 190 193 214 201 199 201 199 196 196 200 182 190 193 191 191 194 196 197 194 205 203 196 196 198 208 205 207 201 202 201 201 201 200 201 201 206 202 195 201 199 188 183 184 190 193 190 183 181 179 175 159 155 180 163 164 171 167 137 143 161 152 154 13 353 2 341 238 241 242 223 201 170 172 165 169 166 163
259 252 257 241 231 224 202 205 205 207 204 200 205 195 192 196 202 197 191 191 198 195 189 202 203 200 195 196 189 195 225 224 220 202 194 200 203 203 201 201 202 203 200 203 207 203 199 200 197 185 186 184 187 193 188 181 187 182 172 169 164 182 158 176 177 183 151 132 104 97 215 168 245 263 256 247 222 237 245 209 196 184 179 173 164
258 247 244 245 242 229 213 214 214 208 206 205 199 197 196 200 199 197 197 197 198 199 200 205 196 181 156 134 171 161 188 184 189 195 203 208 214 203 207 203 201 203 199 199 205 208 207 199 193 191 191 185 188 189 188 190 180 184 190 188 165 163 172 188 200 196 157 138 157 187 160 166 296 239 201 227 193 209 206 212 206 202 192 182 161
257 267 254 243 238 224 208 212 195 199 207 201 196 196 196 199 200 194 194 196 198 194 193 174 140 135 100 60 69 82 44 142 183 227 213 211 211 208 211 199 203 203 202 201 198 204 206 211 202 195 191 192 193 194 194 195 187 185 184 185 183 174 176 183 197 204 199 200 144 124 102 190 219 148 143 234 183 221 223 215 216 209 200 194 186
244 256 257 236 230 244 246 217 197 211 210 209 200 200 193 198 193 190 188 188 191 188 180 168 180 175 163 171 190 195 212 194 205 212 203 205 213 209 201 206 207 207 203 205 209 203 200 201 203 207 203 197 196 194 193 192 193 192 192 188 190 190 179 172 191 210 209 220 226 224 137 176 175 174 133 225 140 224 220 214 215 215 203 200 211
266 267 274 258 236 223 226 211 211 207 221 194 188 195 197 191 188 187 188 190 186 182 173 173 182 189 194 201 205 206 216 226 228 224 201 216 199 203 211 207 213 211 211 208 208 213 212 205 201 194 202 208 197 196 198 196 194 195 188 193 194 182 167 183 191 192 202 242 239 240 215 62 133 140 196 84 246 234 226 216 227 218 212 211 210
240 251 253 244 232 210 216 215 205 214 194 159 191 188 191 192 185 190 189 187 187 175 180 183 190 193 199 209 211 216 216 227 204 219 201 182 203 215 210 215 210 213 213 213 213 213 216 213 213 220 204 195 197 207 200 197 192 198 195 196 192 191 187 186 187 181 190 213 213 219 225 139 186 224 144 179 154 167 218 240 267 226 220 222 208
229 240 251 248 236 231 234 226 227 211 172 191 193 196 192 188 187 185 191 188 190 183 184 192 195 192 199 202 217 224 224 230 193 203 204 196 210 213 213 217 218 219 218 215 215 218 220 224 219 214 217 226 209 205 203 196 195 190 192 197 201 201 198 199 184 193 199 209 184 218 214 202 174 209 157 198 155 168 226 196 212 194 240 232 219
275 252 275 281 270 266 253 263 204 215 214 198 201 169 184 182 192 189 203 192 190 190 191 194 196 189 200 208 216 223 215 225 187 210 211 199 220 216 216 216 216 220 223 223 218 216 215 219 226 226 222 216 208 214 210 201 198 196 194 195 196 197 202 201 201 200 204 209 198 197 198 185 122 188 210 203 260 222 202 200 202 187 205 221 193
350 336 331 314 299 268 293 227 257 283 233 196 201 193 191 193 197 204 208 195 192 195 191 198 197 198 207 209 215 220 211 205 209 223 210 212 222 221 215 218 211 219 217 223 223 220 222 223 223 226 226 221 214 212 202 197 198 196 195 197 203 202 202 204 208 208 205 213 208 198 200 193 195 195 201 198 197 197 198 214 187 194 206 203 219
319 332 337 344 355 14 22 302 309 283 286 269 265 247 218 213 204 215 218 204 197 196 196 203 200 208 213 211 215 217 205 204 213 219 207 213 215 221 217 219 222 223 221 225 224 216 218 222 227 236 233 227 221 214 215 209 201 197 194 195 197 202 205 204 206 209 203 206 213 211 210 207 215 215 210 198 198 208 191 180 178 168 222 228 124
303 302 324 332 324 312 312 292 331 353 351 344 319 296 272 244 225 221 230 208 205 197 201 206 206 212 212 214 218 212 210 211 216 222 210 214 212 220 208 220 216 221 222 223 223 214 221 227 227 232 240 239 230 214 213 203 193 191 195 199 201 197 200 201 208 213 209 206 211 210 205 207 215 217 185 190 195 122 158 134 189 174 186 188 193
297 306 300 292 291 303 319 328 328 311 312 307 284 258 243 238 232 227 238 214 211 207 209 209 215 215 212 215 215 206 217 213 219 221 216 212 206 216 214 215 215 220 215 221 215 216 220 229 232 234 243 253 247 238 222 208 198 194 195 204 212 210 200 202 208 213 215 217 213 208 211 210 213 201 184 162 172 160 170 177 151 168 31 192 111
326 301 287 269 269 261 266 264 264 252 252 261 250 236 232 241 232 233 243 233 216 218 215 220 223 219 218 218 217 211 217 217 222 219 214 212 211 216 221 218 221 224 219 219 205 211 218 219 225 231 233 239 244 237 232 225 213 202 192 198 213 215 213 208 213 211 211 211 212 210 212 211 211 201 183 192 178 189 185 170 152 154 134 175 210
297 297 291 276 260 271 279 280 268 263 252 249 245 235 227 233 227 230 231 232 223 225 227 225 228 224 221 219 221 217 220 223 228 220 222 212 213 213 222 218 222 221 220 205 210 206 213 215 216 225 230 232 231 229 222 216 214 210 213 212 208 200 209 209 212 211 216 215 215 216 211 215 210 202 198 196 194 194 185 162 170 170 163 194 192
318 299 282 292 300 272 251 249 257 253 249 237 234 225 226 229 229 237 239 240 233 229 233 230 233 228 229 225 222 221 219 221 223 222 219 216 216 219 220 221 218 216 216 204 208 208 212 213 215 218 222 227 231 229 223 219 215 208 202 208 226 219 213 211 209 207 213 211 214 210 210 210 209 207 202 204 202 196 191 182 184 186 188 179 175
290 286 287 284 282 278 269 253 241 244 243 246 240 232 234 233 230 236 241 238 238 233 234 229 230 233 236 233 231 227 226 230 229 229 219 219 225 224 223 223 219 212 206 206 203 207 210 212 218 220 219 220 228 234 232 226 218 228 223 216 211 201 209 214 213 211 212 208 212 211 210 213 207 204 207 203 201 200 191 190 195 200 185 185 183
339 321 305 294 287 281 275 269 261 250 247 246 247 231 237 236 234 230 236 232 233 230 232 235 228 234 233 235 234 235 235 237 236 236 226 226 228 224 222 225 219 207 205 201 204 206 205 210 215 222 218 220 221 231 234 235 222 218 212 219 219 214 214 216 214 208 212 202 205 210 208 215 202 207 204 198 200 197 200 193 199 197 202 202 181
285 294 296 288 281 267 264 266 269 255 253 249 246 241 236 232 229 234 242 245 245 237 226 234 227 231 241 239 237 234 237 236 232 225 230 233 234 228 228 224 219 205 207 199 202 201 200 205 210 215 220 220 215 223 228 235 234 232 220 215 212 204 211 214 213 207 206 204 208 210 207 209 204 200 197 197 195 194 187 189 195 199 203 193 159
271 267 280 296 298 298 284 266 266 278 265 255 231 229 236 232 238 235 235 240 238 236 223 235 217 231 232 237 239 233 239 233 238 228 233 237 234 230 229 226 210 220 198 202 200 199 198 203 204 210 214 215 214 215 216 221 227 233 231 221 210 205 212 218 212 211 207 201 207 213 212 211 192 196 205 204 201 196 190 194 192 190 196 185 168
298 304 292 313 301 276 281 294 277 279 279 267 263 258 255 240 242 247 249 250 245 242 226 232 225 232 230 236 234 231 231 228 234 235 236 240 235 229 230 225 225 225 201 208 205 197 196 196 203 209 213 217 219 216 209 207 217 223 226 216 211 206 213 216 205 212 207 207 204 209 213 206 192 205 197 200 200 193 191 191 195 189 195 191 185
316 280 224 224 251 313 310 299 297 281 285 290 287 262 255 252 244 237 233 251 236 241 222 221 228 232 237 237 238 234 222 224 229 234 234 236 236 235 219 223 230 227 221 215 206 201 196 195 201 206 207 214 216 215 208 207 217 219 219 215 209 205 209 210 208 212 205 200 203 209 212 196 182 195 199 203 190 196 193 195 196 191 190 187 191
341 348 353 349 343 331 329 322 314 308 291 273 259 253 254 253 245 237 238 250 247 234 228 222 227 235 240 244 242 243 229 230 231 234 234 233 223 224 211 224 227 219 221 224 214 204 199 198 202 204 206 209 213 215 214 214 217 216 219 217 211 209 210 211 212 213 206 198 205 204 206 189 183 191 189 184 184 183 185 187 182 179 178 179 187
346 341 333 328 327 325 315 311 308 296 284 276 274 264 253 255 246 238 246 253 253 235 224 230 230 239 236 232 244 237 236 235 234 234 236 232 225 222 214 220 217 221 220 214 222 210 206 204 206 204 204 206 208 205 212 218 220 217 218 218 214 212 212 214 213 213 206 202 205 206 198 183 178 182 175 177 172 174 169 162 166 164 158 154 140
324 318 320 317 312 309 308 305 307 290 273 279 276 269 267 264 259 249 254 259 254 240 233 232 231 236 242 234 237 231 233 237 237 236 233 228 224 220 218 221 212 219 215 215 210 208 206 209 209 208 203 204 203 207 213 216 214 212 215 217 216 214 216 217 217 215 208 203 204 205 189 181 178 181 183 170 165 164 157 159 155 149 136 121 111
298 301 298 308 310 308 307 307 305 302 292 278 280 286 277 266 268 258 246 249 253 239 238 234 237 235 243 242 243 240 235 231 226 225 219 216 218 217 213 219 206 212 212 213 212 211 214 208 212 206 205 200 201 208 216 217 216 213 213 214 214 214 214 216 216 212 206 204 202 193 181 180 184 184 172 172 164 157 158 158 153 141 127 121 119
295 301 297 293 297 304 305 306 315 319 323 319 309 288 283 284 283 279 253 243 247 238 240 237 239 240 239 245 241 240 238 239 243 242 229 221 213 211 214 213 198 211 213 210 208 208 213 208 211 207 207 200 200 206 213 215 214 212 211 214 212 211 212 213 215 210 201 200 197 191 183 184 184 180 175 169 163 158 151 144 151 132 131 128 130
296 286 300 311 309 305 307 313 317 321 322 321 319 317 310 295 274 270 264 249 239 236 242 239 242 240 241 241 246 245 240 240 236 232 231 228 223 214 206 205 206 214 210 211 208 205 205 212 213 209 207 202 205 207 205 207 209 213 213 214 214 213 210 211 209 206 200 194 190 184 183 185 184 176 175 169 169 160 152 148 150 136 134 133 131
316 317 314 309 305 307 307 312 315 315 315 316 317 317 316 315 311 308 294 270 207 232 232 239 237 240 243 246 247 251 241 236 229 229 231 227 220 217 209 206 212 211 209 205 204 206 209 207 205 208 206 205 212 210 204 207 207 208 207 212 212 214 210 208 202 197 195 193 187 181 182 178 171 166 166 166 165 166 166 156 152 148 146 141 141
327 326 324 317 313 310 311 314 308 309 308 310 308 307 312 314 311 311 308 300 202 245 235 239 246 244 247 249 249 246 242 239 233 237 233 225 219 208 211 216 215 210 209 204 198 209 213 207 206 203 204 208 210 206 206 201 205 206 204 206 204 208 207 204 199 192 194 190 182 175 166 165 162 161 166 169 170 167 160 149 147 147 144 143 147
330 326 327 328 325 323 322 318 315 312 311 309 311 314 315 308 308 307 307 313 270 256 253 253 252 256 252 248 246 248 242 240 234 234 227 218 203 200 208 212 213 212 211 190 207 215 210 208 206 206 208 208 210 206 201 202 203 199 202 199 201 203 202 203 200 195 191 183 176 167 161 161 165 166 165 167 168 167 160 154 150 152 157 154 163
323 315 317 315 317 318 316 317 319 319 319 314 314 314 307 305 308 303 314 310 301 278 268 266 263 258 258 251 249 244 243 240 233 231 221 207 203 205 207 204 209 204 181 199 212 205 212 207 204 206 211 208 212 205 201 197 208 201 189 195 199 203 198 204 198 194 186 178 171 162 157 165 168 163 162 165 162 166 163 154 161 157 136 118 117
309 299 292 291 299 304 305 301 298 300 302 303 307 301 297 299 297 302 305 303 306 301 286 276 274 265 261 258 250 245 247 244 237 226 212 212 209 216 212 206 198 186 194 203 204 207 206 205 204 205 208 209 211 213 204 199 211 208 197 185 206 200 204 202 198 191 185 178 173 169 164 164 163 165 169 167 166 166 160 148 139 131 128 113 109
310 318 321 319 316 311 312 315 315 313 308 312 311 312 311 311 312 310 305 306 304 300 295 284 280 278 270 260 252 246 249 249 234 223 216 218 217 225 218 211 201 197 196 200 199 204 207 203 201 199 203 208 214 205 201 202 205 206 201 192 201 202 200 203 199 193 185 176 171 169 167 162 162 169 172 169 165 158 144 143 140 131 121 115 112
295 298 304 311 315 316 312 307 308 314 310 308 301 307 313 306 309 302 301 301 299 297 288 286 286 286 279 269 254 254 251 248 236 227 223 226 221 216 213 203 200 207 211 203 213 204 202 200 199 197 201 213 213 201 198 203 198 202 200 196 199 200 201 201 199 192 181 171 167 166 164 164 167 170 173 169 159 143 143 140 134 127 117 107 99
286 272 277 282 286 291 290 294 296 293 297 301 306 314 310 307 308 305 306 302 302 294 289 296 292 283 281 278 260 255 253 243 232 229 231 230 225 221 216 183 198 202 199 202 205 200 198 194 193 196 200 215 216 204 202 205 204 202 200 197 194 197 198 196 196 184 174 165 165 166 162 161 164 165 171 168 160 151 143 141 133 127 122 121 121
269 288 283 279 278 285 288 276 282 289 281 291 306 312 311 308 305 306 309 307 306 297 298 299 292 293 293 280 258 247 250 242 228 229 231 235 230 228 213 190 201 196 206 209 199 197 197 193 190 197 200 204 214 202 199 203 203 203 197 192 187 190 192 183 170 158 152 152 156 159 156 154 159 163 161 152 148 148 140 139 134 133 136 132 134
260 269 285 288 289 287 293 307 308 311 314 320 317 317 314 307 306 310 311 308 303 300 304 305 302 303 296 282 263 250 245 242 236 234 225 224 212 210 191 177 209 195 207 180 186 185 190 190 197 199 197 199 196 193 197 200 200 199 194 181 182 183 176 162 144 128 129 143 147 158 160 163 161 161 152 145 140 136 138 143 145 140 143 153 161
290 272 251 260 276 304 303 299 299 299 309 318 322 320 313 306 304 307 305 297 295 299 300 298 295 294 291 284 265 255 249 241 240 235 219 213 183 152 159 170 183 172 177 176 182 181 180 191 181 183 188 187 179 185 196 197 197 200 193 170 173 176 178 165 157 156 146 145 143 146 159 164 159 156 152 147 141 143 146 144 144 148 151 162 156
301 299 298 283 258 243 265 273 281 288 298 308 312 311 303 302 301 305 294 290 295 298 296 294 292 290 289 281 273 252 256 254 239 230 209 179 170 171 160 161 164 158 154 163 164 164 164 170 174 183 177 184 181 184 202 201 202 202 185 158 180 181 166 151 144 139 145 144 141 146 148 152 154 153 151 149 147 144 141 146 155 162 163 147 142
278 278 286 299 305 291 284 284 258 253 260 280 298 300 298 299 299 287 282 292 298 294 292 291 288 285 286 286 278 274 260 248 230 145 150 175 183 163 169 162 157 157 158 160 154 151 155 157 163 174 177 187 182 188 189 199 202 200 192 167 159 160 142 135 134 140 145 148 149 149 149 156 156 150 146 144 146 147 144 140 150 136 133 141 143
326 329 330 332 323 323 319 314 316 319 301 276 264 277 286 290 286 284 295 299 291 289 289 288 290 292 295 297 298 267 250 177 183 181 161 166 175 158 162 156 152 150 150 151 154 150 145 146 135 144 153 176 179 189 189 186 193 191 184 169 150 142 149 145 148 154 160 155 149 146 150 154 151 144 143 144 145 145 137 143 139 136 141 144 140
313 304 307 320 316 315 315 310 311 311 314 315 315 303 295 288 281 289 295 292 290 283 288 289 293 299 309 314 314 310 278 177 162 147 145 150 165 167 158 167 157 151 150 149 153 148 144 151 159 159 150 159 170 170 192 180 180 174 168 164 161 157 156 155 153 153 152 152 152 153 153 152 145 142 142 144 147 144 144 143 141 143 148 146 135
315 315 314 317 314 311 313 312 311 315 313 311 302 299 301 296 293 313 299 298 292 291 288 285 292 306 309 309 335 351 325 212 183 161 150 153 151 159 151 177 151 152 154 154 158 158 162 159 154 161 156 149 148 152 164 182 170 166 165 163 161 161 160 152 143 141 141 150 151 149 147 145 144 145 147 145 142 143 145 145 148 150 143 128 138
320 321 325 320 317 311 309 308 308 312 313 308 309 296 294 291 302 306 299 294 291 288 282 274 288 298 302 309 308 347 11 42 165 179 173 171 163 168 163 169 158 159 155 155 154 151 148 150 156 148 154 148 143 134 154 156 154 153 153 154 154 154 149 138 130 135 142 143 145 145 140 141 141 143 139 132 137 144 145 144 139 130 129 138 140
316 313 317 315 316 312 310 311 307 309 315 303 305 297 277 285 295 300 302 297 288 278 275 273 264 277 294 302 242 258 276 14 103 110 129 153 163 161 162 167 170 160 159 155 156 154 154 159 162 160 148 150 142 146 144 142 141 141 140 141 136 135 128 120 122 133 139 143 141 139 139 139 129 130 129 130 129 125 120 120 105 123 131 140 143
314 311 316 313 308 304 301 301 300 303 308 299 294 290 289 289 290 295 296 295 284 274 271 267 257 244 240 246 241 246 227 208 215 174 152 151 172 174 171 178 177 175 167 172 167 168 171 173 169 160 148 143 150 147 154 150 144 132 129 125 126 129 134 139 138 142 142 138 133 128 125 115 112 111 109 93 90 92 111 120 122 125 128 123 115
311 312 312 308 306 305 300 298 295 300 302 300 296 291 289 287 286 293 291 284 276 276 273 270 260 234 223 203 207 234 233 216 210 205 213 203 179 182 182 192 229 209 192 179 174 172 164 158 155 162 159 156 156 164 161 143 137 137 141 144 147 147 145 142 144 137 125 116 114 115 118 122 126 127 124 127 127 123 116 122 128 130 128 122 124
302 299 296 296 296 295 300 301 299 302 300 296 295 293 288 282 283 281 273 265 272 273 270 266 263 247 234 196 188 210 242 247 233 205 150 37 48 141 163 161 166 139 118 116 156 171 168 162 162 179 178 174 174 161 147 144 142 140 141 138 136 134 136 137 141 138 133 130 133 133 139 138 139 140 142 146 149 147 145 144 149 140 130 125 136
317 318 316 314 309 306 301 300 301 309 307 303 296 292 291 286 278 269 248 250 256 265 262 261 260 254 243 211 189 181 219 232 238 220 201 157 108 94 118 123 127 127 136 155 157 145 152 167 166 156 140 139 136 147 149 146 145 140 140 142 144 144 142 143 140 130 130 136 142 139 144 143 148 152 157 160 156 157 162 156 158 153 140 144 145